"Timestamp","TZ","WindDir_Mean (deg)","WindSpd_Mean (km/h)","WindSpd_Min (km/h)","WindSpd_Max (km/h)","Temp_Mean (deg)","RH_Mean (%)","MSLP_Mean (hPa)","Rain_Acc (mm)","Rain_Intensity (mm/h)","Hail_Acc (hits/cm2)","Hail_Intensity (hits/cm2hr)","Solar_Mean (W/m2)"
2020/09/17 00:00:00.015,n,89,1.08,0.72,1.08,16.9,76.8,1026.12,0,0,0,0,0.031357
2020/09/17 00:01:00.000,n,72,1.08,0.36,1.8,17,77,1026.12,0,0,0,0,0.030479
2020/09/17 00:02:00.000,n,46,1.44,1.08,1.44,17,77,1026.12,0,0,0,0,0.031357
2020/09/17 00:03:00.000,n,42,1.44,1.44,1.44,17,77,1026.12,0,0,0,0,0.02697
2020/09/17 00:04:00.003,n,236,0.36,0,0.72,17,77.1,1026.12,0,0,0,0,0.034828
2020/09/17 00:05:00.001,n,67,1.8,1.08,2.16,17,77,1026.12,0,0,0,0,0.027847
2020/09/17 00:06:00.000,n,76,1.08,0.36,1.8,17,76.8,1026.12,0,0,0,0,0.027847
2020/09/17 00:07:00.000,n,85,0.72,0.36,0.72,17,76.6,1026.12,0,0,0,0,0.033073
2020/09/17 00:08:00.009,n,161,0.36,0.36,0.72,17,76.6,1026.12,0,0,0,0,0.031357
2020/09/17 00:09:00.007,n,342,1.8,1.44,2.16,17,76.7,1026.12,0,0,0,0,0.028725
2020/09/17 00:10:00.000,n,133,0.72,0.36,1.08,17,76.8,1026.12,0,0,0,0,0.033073
2020/09/17 00:11:00.000,n,208,0.72,0.36,0.72,17,76.8,1026.12,0,0,0,0,0.029602
2020/09/17 00:12:00.000,n,248,1.8,1.44,2.16,17,76.8,1026.12,0,0,0,0,0.02697
2020/09/17 00:13:00.000,n,66,1.8,1.44,2.16,16.9,77,1026.12,0,0,0,0,0.029602
2020/09/17 00:14:00.000,n,37,1.08,0.36,1.44,16.9,77.3,1026.12,0,0,0,0,0.029602
2020/09/17 00:15:00.006,n,51,0.36,0,0.36,16.9,77.2,1026.12,0,0,0,0,0.027847
2020/09/17 00:16:00.004,n,329,0.72,0.36,0.72,16.9,77.1,1026.12,0,0,0,0,0.023499
2020/09/17 00:17:00.000,n,60,1.8,1.08,2.16,16.9,77.5,1026.02,0,0,0,0,0.026131
2020/09/17 00:18:00.014,n,215,0.36,0.36,0.72,16.9,77.5,1026.02,0,0,0,0,0.023499
2020/09/17 00:19:00.000,n,344,0.36,0.36,0.72,16.9,77.5,1026.02,0,0,0,0,0.02697
2020/09/17 00:20:00.000,n,106,0.72,0.36,1.08,16.9,77.5,1026.02,0,0,0,0,0.034828
2020/09/17 00:21:00.004,n,125,1.08,0.72,1.44,16.9,77.5,1026.02,0,0,0,0,0.037422
2020/09/17 00:22:00.008,n,138,1.8,1.44,1.8,16.8,77.6,1026.02,0,0,0,0,0.034828
2020/09/17 00:23:00.005,n,107,1.08,0.72,2.52,16.8,77.7,1026.02,0,0,0,0,0.035667
2020/09/17 00:24:00.002,n,168,0.36,0,1.08,16.8,77.6,1026.02,0,0,0,0,0.032196
2020/09/17 00:25:00.000,n,10,0.72,0.36,1.44,16.8,77.7,1026.02,0,0,0,0,0.035667
2020/09/17 00:26:00.012,n,186,1.08,1.08,1.44,16.8,77.7,1026.02,0,0,0,0,0.035667
2020/09/17 00:27:00.010,n,233,0.36,0.36,0.72,16.700002,77.6,1026.02,0,0,0,0,0.028687
2020/09/17 00:28:00.000,n,119,0.72,0.72,1.08,16.700002,77.7,1026.02,0,0,0,0,0.028687
2020/09/17 00:29:00.000,n,273,1.44,1.08,1.44,16.700002,77.6,1026.02,0,0,0,0,0.033073
2020/09/17 00:30:00.000,n,86,2.16,1.8,2.16,16.700002,77.9,1025.92,0,0,0,0,0.026093
2020/09/17 00:31:00.000,n,110,0.72,0.36,1.08,16.700002,77.7,1025.92,0,0,0,0,0.032196
2020/09/17 00:32:00.000,n,148,1.08,0.72,1.44,16.700002,77.7,1025.92,0,0,0,0,0.027847
2020/09/17 00:33:00.009,n,177,0.72,0.36,1.08,16.6,77.6,1025.92,0,0,0,0,0.035667
2020/09/17 00:34:00.006,n,215,0.72,0.72,0.72,16.6,77.7,1025.92,0,0,0,0,0.032196
2020/09/17 00:35:00.003,n,0,1.08,0,1.44,16.6,77.9,1025.92,0,0,0,0,0.031319
2020/09/17 00:36:00.001,n,141,0.36,0.36,0.72,16.6,78.1,1025.92,0,0,0,0,0.028687
2020/09/17 00:37:00.000,n,215,0.72,0.36,0.72,16.6,78,1025.92,0,0,0,0,0.031319
2020/09/17 00:38:00.000,n,25,1.08,0.72,1.8,16.6,77.9,1025.92,0,0,0,0,0.029564
2020/09/17 00:39:00.000,n,233,1.8,1.44,1.8,16.6,77.8,1025.92,0,0,0,0,0.031319
2020/09/17 00:40:00.005,n,286,0.72,0.36,0.72,16.5,77.8,1025.92,0,0,0,0,0.029564
2020/09/17 00:41:00.002,n,292,0.36,0,1.08,16.5,77.7,1025.92,0,0,0,0,0.028687
2020/09/17 00:42:00.000,n,145,1.8,1.08,3.24,16.5,77.5,1025.92,0,0,0,0,0.030479
2020/09/17 00:43:00.012,n,243,1.44,1.08,1.8,16.5,77.8,1025.92,0,0,0,0,0.028687
2020/09/17 00:44:00.009,n,100,1.08,0.36,1.08,16.5,77.7,1025.92,0,0,0,0,0.025215
2020/09/17 00:45:00.006,n,205,1.44,1.08,1.8,16.4,77.6,1025.92,0,0,0,0,0.025215
2020/09/17 00:46:00.000,n,21,1.08,0.72,1.44,16.4,77.6,1025.82,0,0,0,0,0.027847
2020/09/17 00:47:00.000,n,247,1.44,1.44,1.8,16.4,77.8,1025.82,0,0,0,0,0.029564
2020/09/17 00:48:00.000,n,261,2.88,2.16,3.6,16.4,77.8,1025.82,0,0,0,0,0.027847
2020/09/17 00:49:00.000,n,277,2.16,1.8,2.52,16.4,77.7,1025.82,0,0,0,0,0.025215
2020/09/17 00:50:00.008,n,275,5.04,4.68,6.12,16.4,77.7,1025.82,0,0,0,0,0.027847
2020/09/17 00:51:00.005,n,265,2.52,2.16,2.88,16.3,77.8,1025.82,0,0,0,0,0.02697
2020/09/17 00:52:00.002,n,262,1.44,0.72,2.88,16.3,78,1025.82,0,0,0,0,0.025215
2020/09/17 00:53:00.000,n,259,0.72,0.36,1.44,16.3,78.3,1025.82,0,0,0,0,0.025215
2020/09/17 00:54:00.014,n,259,2.16,1.8,2.52,16.3,78,1025.82,0,0,0,0,0.024338
2020/09/17 00:55:00.000,n,250,1.08,0.72,1.44,16.3,78.2,1025.82,0,0,0,0,0.029564
2020/09/17 00:56:00.000,n,176,0.36,0.36,0.72,16.3,78,1025.82,0,0,0,0,0.025215
2020/09/17 00:57:00.000,n,138,1.8,1.08,2.16,16.3,77.8,1025.82,0,0,0,0,0.025215
2020/09/17 00:58:00.003,n,255,0.72,0.36,1.08,16.3,77.9,1025.82,0,0,0,0,0.025215
2020/09/17 00:59:00.000,n,129,2.16,1.8,2.52,16.200002,77.9,1025.82,0,0,0,0,0.023499
2020/09/17 01:00:00.000,n,241,2.16,1.8,2.88,16.200002,78.1,1025.82,0,0,0,0,0.020866
2020/09/17 01:01:00.011,n,118,2.88,0.72,4.32,16.200002,78.2,1025.82,0,0,0,0,0.019989
2020/09/17 01:02:00.008,n,134,1.44,0.36,1.8,16.200002,78.3,1025.82,0,0,0,0,0.025215
2020/09/17 01:03:00.005,n,84,0.36,0,0.36,16.200002,78.3,1025.82,0,0,0,0,0.019112
2020/09/17 01:04:00.002,n,116,1.44,1.08,1.8,16.200002,78.5,1025.82,0,0,0,0,0.025215
2020/09/17 01:05:00.000,n,229,1.08,0.36,1.8,16.200002,78.6,1025.82,0,0,0,0,0.017395
2020/09/17 01:06:00.000,n,171,2.16,1.8,2.52,16.200002,78.7,1025.82,0,0,0,0,0.021744
2020/09/17 01:07:00.000,n,114,1.44,1.44,1.8,16.200002,78.7,1025.82,0,0,0,0,0.019112
2020/09/17 01:08:00.006,n,132,1.8,1.44,2.16,16.200002,78.6,1025.82,0,0,0,0,0.018272
2020/09/17 01:09:00.004,n,145,1.44,1.08,1.44,16.200002,78.7,1025.82,0,0,0,0,0.022621
2020/09/17 01:10:00.001,n,189,1.08,0.72,1.8,16.200002,78.8,1025.72,0,0,0,0,0.020866
2020/09/17 01:11:00.014,n,278,3.24,2.16,5.04,16.200002,79.4,1025.72,0,0,0,0,0.030479
2020/09/17 01:12:00.007,n,194,1.44,1.44,1.8,16.200002,79.1,1025.72,0,0,0,0,0.029602
2020/09/17 01:13:00.000,n,244,2.52,1.44,3.24,16.200002,79,1025.72,0,0,0,0,0.035706
2020/09/17 01:14:00.001,n,208,1.44,1.08,1.44,16.200002,79.1,1025.72,0,0,0,0,0.030479
2020/09/17 01:15:00.000,n,264,1.8,1.44,2.16,16.200002,79.4,1025.72,0,0,0,0,0.033112
2020/09/17 01:16:00.000,n,269,4.68,4.32,5.04,16.200002,79.4,1025.72,0,0,0,0,0.025253
2020/09/17 01:17:00.008,n,265,2.52,2.16,3.24,16.200002,79.2,1025.72,0,0,0,0,0.033112
2020/09/17 01:18:00.006,n,191,2.52,2.16,2.88,16.1,79.3,1025.72,0,0,0,0,0.029602
2020/09/17 01:19:00.003,n,251,1.44,1.08,1.8,16.1,79.5,1025.72,0,0,0,0,0.027847
2020/09/17 01:20:00.000,n,159,1.08,0.72,2.16,16.1,79.7,1025.72,0,0,0,0,0.031357
2020/09/17 01:21:00.013,n,117,1.44,1.08,1.8,16.1,79.5,1025.72,0,0,0,0,0.031357
2020/09/17 01:22:00.000,n,259,0.72,0.36,0.72,16.1,79.6,1025.72,0,0,0,0,0.029602
2020/09/17 01:23:00.000,n,44,1.8,1.44,2.52,16.1,79.6,1025.72,0,0,0,0,0.027008
2020/09/17 01:24:00.005,n,183,3.6,2.88,3.96,16.1,79.7,1025.62,0,0,0,0,0.027847
2020/09/17 01:25:00.002,n,140,5.4,4.32,6.12,16.1,79.7,1025.62,0,0,0,0,0.030479
2020/09/17 01:26:00.000,n,217,2.16,1.44,2.88,16.1,79.8,1025.62,0,0,0,0,0.028763
2020/09/17 01:27:00.000,n,164,2.52,1.44,2.88,16.1,79.8,1025.62,0,0,0,0,0.027008
2020/09/17 01:28:00.009,n,136,2.88,2.16,3.6,16.1,79.8,1025.62,0,0,0,0,0.025253
2020/09/17 01:29:00.005,n,192,1.8,0.36,2.52,16.1,79.8,1025.62,0,0,0,0,0.027847
2020/09/17 01:30:00.003,n,56,2.52,1.8,2.88,16.1,79.9,1025.62,0,0,0,0,0.027847
2020/09/17 01:31:00.000,n,105,1.08,0.72,1.44,16.1,79.9,1025.62,0,0,0,0,0.031357
2020/09/17 01:32:00.000,n,4,2.16,1.08,2.88,16.1,79.8,1025.62,0,0,0,0,0.026131
2020/09/17 01:33:00.000,n,158,4.32,3.96,4.68,16.1,79.7,1025.62,0,0,0,0,0.023499
2020/09/17 01:34:00.006,n,198,2.16,1.08,3.24,16.1,79.8,1025.62,0,0,0,0,0.027008
2020/09/17 01:35:00.004,n,270,0.72,0.36,0.72,16.1,79.8,1025.62,0,0,0,0,0.024414
2020/09/17 01:36:00.002,n,239,2.88,2.52,3.24,16.1,80.4,1025.62,0,0,0,0,0.020027
2020/09/17 01:37:00.000,n,118,0.36,0,0.36,16.1,80,1025.62,0,0,0,0,0.024414
2020/09/17 01:38:00.012,n,304,0.72,0.36,1.08,16.1,79.8,1025.62,0,0,0,0,0.023499
2020/09/17 01:39:00.009,n,297,0.72,0.36,1.08,16.1,80.5,1025.62,0,0,0,0,0.020905
2020/09/17 01:40:00.000,n,237,1.44,1.44,1.8,16.1,80.1,1025.62,0,0,0,0,0.027847
2020/09/17 01:41:00.000,n,297,1.08,0.72,1.44,16.1,80,1025.62,0,0,0,0,0.024414
2020/09/17 01:42:00.000,n,126,3.6,2.52,4.32,16,80,1025.52,0,0,0,0,0.021782
2020/09/17 01:43:00.000,n,60,0.36,0.36,0.72,16,80,1025.52,0,0,0,0,0.018272
2020/09/17 01:44:00.000,n,122,0.72,0.36,1.08,16,80,1025.52,0,0,0,0,0.024414
2020/09/17 01:45:00.007,n,177,1.8,0.72,3.24,16,80.3,1025.52,0,0,0,0,0.024414
2020/09/17 01:46:00.005,n,156,1.8,1.44,2.16,16,80.3,1025.52,0,0,0,0,0.01915
2020/09/17 01:47:00.001,n,102,2.16,0.72,3.96,16,80.4,1025.52,0,0,0,0,0.01915
2020/09/17 01:48:00.015,n,217,1.08,0.72,1.44,16,80.4,1025.52,0,0,0,0,0.017433
2020/09/17 01:49:00.000,n,183,0.72,0.36,1.08,16,80.3,1025.42,0,0,0,0,0.024414
2020/09/17 01:50:00.000,n,121,1.08,0.72,1.44,15.9,80.3,1025.42,0,0,0,0,0.029564
2020/09/17 01:51:00.005,n,314,1.44,1.08,1.8,15.9,80.4,1025.42,0,0,0,0,0.033913
2020/09/17 01:52:00.002,n,204,0.72,0.36,1.44,15.9,80.3,1025.42,0,0,0,0,0.037422
2020/09/17 01:53:00.000,n,113,1.44,1.08,2.16,15.9,80.4,1025.42,0,0,0,0,0.031319
2020/09/17 01:54:00.000,n,170,1.44,1.08,2.16,15.9,80.4,1025.42,0,0,0,0,0.038261
2020/09/17 01:55:00.010,n,126,3.24,2.16,3.6,15.9,80.5,1025.32,0,0,0,0,0.033073
2020/09/17 01:56:00.007,n,183,1.44,1.08,1.8,15.9,80.5,1025.32,0,0,0,0,0.033913
2020/09/17 01:57:00.004,n,156,1.44,1.08,1.8,15.9,80.5,1025.32,0,0,0,0,0.035667
2020/09/17 01:58:00.002,n,98,0.36,0,0.72,15.9,80.5,1025.32,0,0,0,0,0.033073
2020/09/17 01:59:00.000,n,69,2.16,1.8,2.16,15.9,80.5,1025.32,0,0,0,0,0.036545
2020/09/17 02:00:00.000,n,141,2.88,2.52,3.6,15.9,80.6,1025.32,0,0,0,0,0.028687
2020/09/17 02:01:00.000,n,114,2.52,2.16,3.24,15.9,80.7,1025.32,0,0,0,0,0.033913
2020/09/17 02:02:00.006,n,131,3.24,1.8,4.32,15.9,80.8,1025.32,0,0,0,0,0.030479
2020/09/17 02:03:00.004,n,167,6.12,5.4,6.48,15.9,80.9,1025.22,0,0,0,0,0.036545
2020/09/17 02:04:00.001,n,169,2.88,1.8,3.96,15.9,80.9,1025.22,0,0,0,0,0.030479
2020/09/17 02:05:00.000,n,156,5.76,4.32,6.84,15.9,80.8,1025.22,0,0,0,0,0.036545
2020/09/17 02:06:00.011,n,261,0.72,0.36,1.08,15.8,80.8,1025.22,0,0,0,0,0.029564
2020/09/17 02:07:00.000,n,144,3.24,2.88,3.6,15.8,80.9,1025.22,0,0,0,0,0.032196
2020/09/17 02:08:00.000,n,176,1.44,0.36,2.88,15.8,80.9,1025.12,0,0,0,0,0.030479
2020/09/17 02:09:00.004,n,356,0.72,0.36,1.08,15.8,80.9,1025.12,0,0,0,0,0.031319
2020/09/17 02:10:00.001,n,120,1.8,1.8,1.8,15.8,80.9,1025.12,0,0,0,0,0.033913
2020/09/17 02:11:00.000,n,216,1.08,0.72,1.44,15.8,80.9,1025.12,0,0,0,0,0.029564
2020/09/17 02:12:00.000,n,220,1.8,0.72,2.88,15.9,80.8,1025.12,0,0,0,0,0.029564
2020/09/17 02:13:00.011,n,219,0.72,0.36,0.72,15.8,80.8,1025.12,0,0,0,0,0.028687
2020/09/17 02:14:00.009,n,62,1.08,0.72,2.16,15.8,80.9,1025.12,0,0,0,0,0.031319
2020/09/17 02:15:00.007,n,45,0.72,0.72,1.08,15.9,80.7,1025.12,0,0,0,0,0.030479
2020/09/17 02:16:00.000,n,35,1.8,1.44,2.16,15.9,80.7,1025.12,0,0,0,0,0.029564
2020/09/17 02:17:00.000,n,202,1.44,1.44,2.16,15.8,80.5,1025.12,0,0,0,0,0.032196
2020/09/17 02:18:00.000,n,170,0.72,0.36,0.72,15.8,80.5,1025.12,0,0,0,0,0.026131
2020/09/17 02:19:00.000,n,2,1.08,0.72,1.8,15.8,80.6,1025.12,0,0,0,0,0.032196
2020/09/17 02:20:00.000,n,221,3.6,2.88,3.96,15.8,80.7,1025.12,0,0,0,0,0.031319
2020/09/17 02:21:00.008,n,324,0.72,0.72,1.08,15.8,80.6,1025.02,0,0,0,0,0.024338
2020/09/17 02:22:00.005,n,260,2.88,2.88,3.96,15.8,80.6,1025.02,0,0,0,0,0.02697
2020/09/17 02:23:00.003,n,255,1.08,0.36,1.44,15.8,80.6,1025.02,0,0,0,0,0.027847
2020/09/17 02:24:00.000,n,256,2.16,1.44,2.16,15.8,81.4,1025.02,0,0,0,0,0.033073
2020/09/17 02:25:00.000,n,258,2.88,2.52,3.96,15.8,81.1,1025.02,0,0,0,0,0.027847
2020/09/17 02:26:00.000,n,241,2.88,2.16,3.24,15.8,81.2,1025.02,0,0,0,0,0.02697
2020/09/17 02:27:00.000,n,257,3.24,2.88,3.6,15.8,80.9,1025.02,0,0,0,0,0.031319
2020/09/17 02:28:00.006,n,278,3.96,1.44,5.04,15.8,81.2,1024.92,0,0,0,0,0.029564
2020/09/17 02:29:00.003,n,250,3.24,2.52,3.96,15.8,81.3,1024.92,0,0,0,0,0.029564
2020/09/17 02:30:00.000,n,256,1.8,1.8,2.16,15.8,81,1024.92,0,0,0,0,0.02697
2020/09/17 02:31:00.000,n,241,2.52,2.52,2.52,15.7,80.9,1024.92,0,0,0,0,0.028687
2020/09/17 02:32:00.010,n,271,1.8,1.44,2.16,15.7,81.4,1024.92,0,0,0,0,0.025215
2020/09/17 02:33:00.007,n,241,3.24,2.88,3.24,15.7,81.5,1024.92,0,0,0,0,0.027847
2020/09/17 02:34:00.000,n,273,2.88,2.16,3.6,15.7,81.3,1024.92,0,0,0,0,0.034828
2020/09/17 02:35:00.000,n,245,2.16,1.8,2.52,15.7,81.1,1024.92,0,0,0,0,0.034828
2020/09/17 02:36:00.000,n,191,1.44,1.08,1.8,15.6,81.4,1024.92,0,0,0,0,0.035667
2020/09/17 02:37:00.000,n,230,1.8,1.44,2.52,15.6,81.6,1024.82,0,0,0,0,0.031319
2020/09/17 02:38:00.008,n,309,1.8,1.8,2.16,15.6,81.3,1024.82,0,0,0,0,0.030479
2020/09/17 02:39:00.006,n,184,1.8,1.44,2.16,15.6,81.4,1024.82,0,0,0,0,0.027847
2020/09/17 02:40:00.002,n,92,1.08,0.36,2.16,15.6,81.5,1024.82,0,0,0,0,0.035667
2020/09/17 02:41:00.000,n,232,1.08,0.72,1.08,15.6,81.4,1024.82,0,0,0,0,0.034828
2020/09/17 02:42:00.012,n,146,0.72,0.36,0.72,15.6,81.4,1024.82,0,0,0,0,0.036545
2020/09/17 02:43:00.000,n,257,1.08,0.36,1.44,15.6,81.4,1024.82,0,0,0,0,0.033073
2020/09/17 02:44:00.000,n,229,0.36,0.36,1.44,15.6,81.6,1024.82,0,0,0,0,0.033073
2020/09/17 02:45:00.003,n,138,0.36,0,1.08,15.6,81.5,1024.82,0,0,0,0,0.033951
2020/09/17 02:46:00.000,n,174,2.52,1.44,3.24,15.6,81.5,1024.82,0,0,0,0,0.035667
2020/09/17 02:47:00.000,n,183,2.16,1.8,2.52,15.6,81.5,1024.82,0,0,0,0,0.031319
2020/09/17 02:48:00.000,n,211,3.24,2.88,3.96,15.6,81.6,1024.82,0,0,0,0,0.031319
2020/09/17 02:49:00.009,n,242,1.08,0.72,1.44,15.6,81.5,1024.72,0,0,0,0,0.032196
2020/09/17 02:50:00.006,n,253,1.08,0,1.8,15.6,81.6,1024.72,0,0,0,0,0.031319
2020/09/17 02:51:00.003,n,148,1.44,1.08,1.44,15.5,81.6,1024.72,0,0,0,0,0.034828
2020/09/17 02:52:00.000,n,149,2.16,1.8,2.52,15.5,81.6,1024.72,0,0,0,0,0.031319
2020/09/17 02:53:00.000,n,191,0.36,0,0.72,15.5,81.9,1024.72,0,0,0,0,0.027847
2020/09/17 02:54:00.000,n,154,2.16,2.16,2.52,15.5,81.7,1024.72,0,0,0,0,0.028687
2020/09/17 02:55:00.000,n,98,0.72,0.72,0.72,15.5,81.6,1024.72,0,0,0,0,0.032196
2020/09/17 02:56:00.005,n,259,2.88,2.52,3.24,15.5,81.6,1024.72,0,0,0,0,0.027847
2020/09/17 02:57:00.001,n,268,0.36,0.36,0.36,15.5,81.6,1024.72,0,0,0,0,0.029602
2020/09/17 02:58:00.000,n,144,1.8,1.44,2.52,15.5,81.6,1024.72,0,0,0,0,0.029602
2020/09/17 02:59:00.011,n,176,1.44,1.44,1.44,15.5,81.5,1024.72,0,0,0,0,0.030479
2020/09/17 03:00:00.009,n,150,2.52,2.16,2.52,15.4,81.5,1024.72,0,0,0,0,0.031319
2020/09/17 03:01:00.000,n,124,1.08,0.36,1.44,15.4,81.6,1024.72,0,0,0,0,0.028687
2020/09/17 03:02:00.002,n,260,2.16,1.8,2.52,15.4,81.7,1024.72,0,0,0,0,0.021744
2020/09/17 03:03:00.000,n,251,1.8,1.44,2.52,15.4,81.9,1024.72,0,0,0,0,0.028687
2020/09/17 03:04:00.000,n,191,1.44,0.36,2.16,15.4,82.4,1024.72,0,0,0,0,0.027847
2020/09/17 03:05:00.000,n,226,1.8,1.44,2.16,15.5,82.1,1024.72,0,0,0,0,0.030479
2020/09/17 03:06:00.007,n,310,1.08,1.08,1.44,15.5,82.1,1024.72,0,0,0,0,0.026093
2020/09/17 03:07:00.004,n,232,2.16,2.16,2.52,15.5,81.9,1024.62,0,0,0,0,0.027847
2020/09/17 03:08:00.001,n,86,0.72,0,1.08,15.4,81.9,1024.62,0,0,0,0,0.029602
2020/09/17 03:09:00.014,n,241,0.72,0.36,0.72,15.4,81.8,1024.62,0,0,0,0,0.024338
2020/09/17 03:10:00.000,n,228,1.44,1.08,1.8,15.4,81.8,1024.62,0,0,0,0,0.025253
2020/09/17 03:11:00.000,n,213,1.44,0.72,2.16,15.4,81.9,1024.62,0,0,0,0,0.02697
2020/09/17 03:12:00.000,n,241,2.16,1.8,2.52,15.4,82,1024.62,0,0,0,0,0.030479
2020/09/17 03:13:00.003,n,211,1.44,1.44,1.8,15.4,82,1024.62,0,0,0,0,0.026093
2020/09/17 03:14:00.000,n,250,0.36,0,0.36,15.3,82,1024.62,0,0,0,0,0.029602
2020/09/17 03:15:00.000,n,147,3.6,2.88,3.96,15.3,82.1,1024.62,0,0,0,0,0.026093
2020/09/17 03:16:00.011,n,141,2.16,1.8,2.88,15.3,82.1,1024.62,0,0,0,0,0.027847
2020/09/17 03:17:00.008,n,200,0.36,0,0.72,15.3,82.3,1024.62,0,0,0,0,0.027847
2020/09/17 03:18:00.006,n,36,1.44,0.72,1.8,15.3,82.3,1024.62,0,0,0,0,0.026093
2020/09/17 03:19:00.000,n,175,2.16,1.8,2.16,15.3,82.2,1024.52,0,0,0,0,0.020905
2020/09/17 03:20:00.000,n,109,0.36,0.36,0.72,15.3,82.1,1024.52,0,0,0,0,0.023499
2020/09/17 03:21:00.000,n,337,0.72,0,1.08,15.3,82.3,1024.62,0,0,0,0,0.029602
2020/09/17 03:22:00.000,n,225,1.8,1.44,2.16,15.3,82.4,1024.62,0,0,0,0,0.022621
2020/09/17 03:23:00.008,n,160,1.8,1.44,2.16,15.3,82.4,1024.62,0,0,0,0,0.022621
2020/09/17 03:24:00.005,n,47,1.44,0.72,2.16,15.3,82.4,1024.62,0,0,0,0,0.023499
2020/09/17 03:25:00.003,n,122,1.08,1.08,1.44,15.3,82.3,1024.62,0,0,0,0,0.02697
2020/09/17 03:26:00.000,n,237,0.72,0.36,1.8,15.3,82.2,1024.62,0,0,0,0,0.028687
2020/09/17 03:27:00.013,n,161,0.36,0.36,0.72,15.3,82.2,1024.62,0,0,0,0,0.021744
2020/09/17 03:28:00.000,n,189,2.16,1.8,2.52,15.2,82.2,1024.62,0,0,0,0,0.02697
2020/09/17 03:29:00.000,n,162,1.44,1.44,1.8,15.2,82.3,1024.62,0,0,0,0,0.022621
2020/09/17 03:30:00.005,n,239,1.44,1.08,1.8,15.2,82.6,1024.62,0,0,0,0,0.020905
2020/09/17 03:31:00.002,n,148,1.8,1.8,2.16,15.2,82.3,1024.62,0,0,0,0,0.024338
2020/09/17 03:32:00.000,n,99,1.8,1.44,2.16,15.2,82.4,1024.62,0,0,0,0,0.022621
2020/09/17 03:33:00.000,n,142,3.6,3.24,3.96,15.2,82.4,1024.62,0,0,0,0,0.025253
2020/09/17 03:34:00.009,n,149,2.16,1.8,2.16,15.2,82.4,1024.62,0,0,0,0,0.025253
2020/09/17 03:35:00.006,n,150,3.24,2.88,3.6,15.1,82.5,1024.62,0,0,0,0,0.022621
2020/09/17 03:36:00.004,n,126,1.08,0.72,1.44,15.1,82.5,1024.62,0,0,0,0,0.014763
2020/09/17 03:37:00.001,n,103,1.44,1.08,1.8,15.1,82.5,1024.62,0,0,0,0,0.021744
2020/09/17 03:38:00.000,n,145,2.88,2.88,3.24,15.1,82.5,1024.62,0,0,0,0,0.020905
2020/09/17 03:39:00.000,n,154,2.88,2.52,3.24,15.1,82.6,1024.62,0,0,0,0,0.019989
2020/09/17 03:40:00.000,n,155,2.52,2.52,2.88,15.1,82.7,1024.62,0,0,0,0,0.029602
2020/09/17 03:41:00.002,n,170,2.52,2.52,2.88,15,82.7,1024.62,0,0,0,0,0.033951
2020/09/17 03:42:00.000,n,154,2.52,2.16,2.88,15,82.7,1024.62,0,0,0,0,0.032234
2020/09/17 03:43:00.000,n,146,3.24,3.24,3.6,15,82.7,1024.62,0,0,0,0,0.034828
2020/09/17 03:44:00.010,n,151,2.88,2.88,3.24,15,82.8,1024.62,0,0,0,0,0.033112
2020/09/17 03:45:00.006,n,145,1.08,1.08,1.44,15,82.8,1024.62,0,0,0,0,0.028725
2020/09/17 03:46:00.000,n,182,1.08,0.72,1.44,15,82.9,1024.62,0,0,0,0,0.034828
2020/09/17 03:47:00.000,n,156,1.8,1.44,2.16,15,82.9,1024.62,0,0,0,0,0.027885
2020/09/17 03:48:00.000,n,141,1.44,1.08,2.16,15,82.9,1024.62,0,0,0,0,0.033951
2020/09/17 03:49:00.000,n,121,1.8,0.72,2.52,15,83,1024.72,0,0,0,0,0.032234
2020/09/17 03:50:00.008,n,130,2.52,2.52,2.88,15,83,1024.72,0,0,0,0,0.030479
2020/09/17 03:51:00.006,n,148,1.44,1.08,1.8,15,82.9,1024.72,0,0,0,0,0.027885
2020/09/17 03:52:00.002,n,132,3.24,2.88,3.6,15,82.9,1024.72,0,0,0,0,0.031319
2020/09/17 03:53:00.000,n,164,3.24,2.88,3.24,14.9,82.9,1024.72,0,0,0,0,0.031319
2020/09/17 03:54:00.014,n,173,2.88,2.52,2.88,14.9,82.9,1024.72,0,0,0,0,0.026131
2020/09/17 03:55:00.000,n,190,5.4,5.04,5.76,14.9,82.9,1024.72,0,0,0,0,0.031319
2020/09/17 03:56:00.000,n,134,5.76,5.4,6.48,14.9,83,1024.72,0,0,0,0,0.032234
2020/09/17 03:57:00.000,n,190,3.24,2.52,3.6,14.9,83.1,1024.72,0,0,0,0,0.031319
2020/09/17 03:58:00.002,n,160,3.6,3.24,3.6,14.9,83.1,1024.72,0,0,0,0,0.029602
2020/09/17 03:59:00.000,n,164,5.04,4.68,5.4,14.9,83.1,1024.72,0,0,0,0,0.029602
2020/09/17 04:00:00.000,n,173,2.52,0.72,3.6,14.9,83.1,1024.72,0,0,0,0,0.031319
2020/09/17 04:01:00.009,n,184,4.32,3.96,4.68,14.9,83.2,1024.72,0,0,0,0,0.028725
2020/09/17 04:02:00.006,n,166,3.24,2.16,3.6,14.9,83.2,1024.72,0,0,0,0,0.025253
2020/09/17 04:03:00.004,n,188,3.96,3.6,4.68,14.9,83.1,1024.72,0,0,0,0,0.027885
2020/09/17 04:04:00.001,n,148,2.88,2.52,3.24,14.8,83.2,1024.72,0,0,0,0,0.029602
2020/09/17 04:05:00.000,n,192,3.24,3.24,3.6,14.8,83.2,1024.82,0,0,0,0,0.028725
2020/09/17 04:06:00.000,n,163,2.52,1.8,2.88,14.8,83.2,1024.82,0,0,0,0,0.026131
2020/09/17 04:07:00.000,n,183,1.44,1.08,1.8,14.8,83.2,1024.82,0,0,0,0,0.030479
2020/09/17 04:08:00.005,n,98,1.08,0.72,1.08,14.8,83.2,1024.82,0,0,0,0,0.02697
2020/09/17 04:09:00.002,n,201,1.8,1.44,2.52,14.8,83.2,1024.82,0,0,0,0,0.030479
2020/09/17 04:10:00.000,n,186,1.8,1.8,2.16,14.8,83.2,1024.82,0,0,0,0,0.024376
2020/09/17 04:11:00.012,n,149,1.44,1.08,2.16,14.8,83.2,1024.82,0,0,0,0,0.021744
2020/09/17 04:12:00.009,n,148,1.08,1.08,1.44,14.8,83.2,1024.82,0,0,0,0,0.027885
2020/09/17 04:13:00.000,n,110,0.72,0.36,1.08,14.8,83.2,1024.82,0,0,0,0,0.029602
2020/09/17 04:14:00.003,n,140,2.52,2.52,2.88,14.8,83.3,1024.82,0,0,0,0,0.028725
2020/09/17 04:15:00.000,n,163,1.44,1.44,1.44,14.8,83.3,1024.82,0,0,0,0,0.029602
2020/09/17 04:16:00.000,n,152,2.52,1.8,2.88,14.8,83.3,1024.82,0,0,0,0,0.026131
2020/09/17 04:17:00.000,n,67,0.72,0.36,0.72,14.8,83.3,1024.82,0,0,0,0,0.027885
2020/09/17 04:18:00.007,n,159,2.88,2.16,3.6,14.8,83.4,1024.82,0,0,0,0,0.023537
2020/09/17 04:19:00.004,n,297,2.16,2.16,2.52,14.8,83.5,1024.82,0,0,0,0,0.023537
2020/09/17 04:20:00.001,n,308,0.72,0.36,0.72,14.8,83.6,1024.82,0,0,0,0,0.020027
2020/09/17 04:21:00.000,n,110,1.08,1.08,1.8,14.8,83.7,1024.82,0,0,0,0,0.020027
2020/09/17 04:22:00.000,n,172,0.36,0,0.72,14.8,83.7,1024.82,0,0,0,0,0.02697
2020/09/17 04:23:00.000,n,279,1.44,0.72,1.8,14.8,83.4,1024.82,0,0,0,0,0.026131
2020/09/17 04:24:00.000,n,184,1.08,0.36,1.44,14.8,83.4,1024.92,0,0,0,0,0.026131
2020/09/17 04:25:00.004,n,83,1.08,0.72,1.44,14.8,83.4,1024.92,0,0,0,0,0.027885
2020/09/17 04:26:00.001,n,242,2.88,1.08,5.04,14.8,83.3,1024.92,0,0,0,0,0.020027
2020/09/17 04:27:00.000,n,237,0.72,0.72,0.72,14.8,83.5,1024.92,0,0,0,0,0.024376
2020/09/17 04:28:00.011,n,245,1.8,1.8,2.16,14.8,83.5,1024.92,0,0,0,0,0.022621
2020/09/17 04:29:00.009,n,212,2.88,1.8,3.6,14.8,83.4,1024.92,0,0,0,0,0.025253
2020/09/17 04:30:00.005,n,238,2.88,2.16,3.24,14.8,83.3,1024.92,0,0,0,0,0.028763
2020/09/17 04:31:00.000,n,293,1.08,0.72,1.08,14.8,83.2,1024.92,0,0,0,0,0.034828
2020/09/17 04:32:00.000,n,252,3.96,3.6,4.68,14.7,83.3,1024.92,0,0,0,0,0.03746
2020/09/17 04:33:00.000,n,256,0.72,0,1.44,14.7,83.4,1025.02,0,0,0,0,0.03746
2020/09/17 04:34:00.006,n,53,1.8,1.08,3.24,14.7,83.4,1025.02,0,0,0,0,0.0383
2020/09/17 04:35:00.004,n,274,2.52,1.44,3.24,14.7,83.4,1024.92,0,0,0,0,0.030479
2020/09/17 04:36:00.000,n,207,3.96,3.24,3.96,14.7,83.3,1025.02,0,0,0,0,0.036583
2020/09/17 04:37:00.000,n,245,1.44,0.72,1.8,14.7,83.4,1025.02,0,0,0,0,0.035706
2020/09/17 04:38:00.011,n,150,1.8,1.44,2.16,14.7,83.4,1025.02,0,0,0,0,0.039177
2020/09/17 04:39:00.008,n,269,1.8,1.44,2.16,14.7,83.5,1025.02,0,0,0,0,0.033951
2020/09/17 04:40:00.000,n,204,0.72,0.36,1.08,14.7,83.5,1025.02,0,0,0,0,0.043526
2020/09/17 04:41:00.001,n,31,1.44,0.72,1.8,14.7,83.9,1025.02,0,0,0,0,0.03746
2020/09/17 04:42:00.000,n,260,2.16,1.44,2.88,14.7,83.7,1025.02,0,0,0,0,0.036583
2020/09/17 04:43:00.000,n,10,2.16,1.44,2.88,14.7,83.6,1025.02,0,0,0,0,0.035706
2020/09/17 04:44:00.000,n,228,2.52,1.44,2.88,14.7,83.5,1025.12,0,0,0,0,0.034828
2020/09/17 04:45:00.006,n,143,3.24,2.52,3.6,14.7,83.9,1025.12,0,0,0,0,0.033951
2020/09/17 04:46:00.003,n,272,0.72,0.36,1.08,14.7,83.5,1025.12,0,0,0,0,0.033951
2020/09/17 04:47:00.000,n,156,1.08,0.36,1.8,14.7,83.4,1025.22,0,0,0,0,0.033951
2020/09/17 04:48:00.014,n,357,0.36,0,0.72,14.7,83.4,1025.22,0,0,0,0,0.030479
2020/09/17 04:49:00.000,n,266,3.96,3.24,4.32,14.6,83.5,1025.22,0,0,0,0,0.034828
2020/09/17 04:50:00.000,n,253,1.44,1.08,1.44,14.7,83.7,1025.22,0,0,0,0,0.030479
2020/09/17 04:51:00.000,n,271,1.08,0.72,1.44,14.7,83.9,1025.22,0,0,0,0,0.035706
2020/09/17 04:52:00.002,n,234,2.88,2.16,3.6,14.7,83.4,1025.22,0,0,0,0,0.035706
2020/09/17 04:53:00.000,n,265,2.52,0,3.24,14.7,83.5,1025.22,0,0,0,0,0.031357
2020/09/17 04:54:00.000,n,121,1.08,0.72,2.16,14.7,83.4,1025.22,0,0,0,0,0.030479